Satellite-Ground Cal/Val Region Overpasses Predictions

Prediction of Satellite NPP Overpassing Cal/Val Region: PacNW

Region Location: (Latitude: 10.00, Longitude: 139.50) to (Latitude: 22.70, Longitude: 165.60).

Table of predicted overpasses for the next 14.0 days since TLE Epoch: 11/15/2013
Interval Starting Time Starting Location Ending Time Ending Location
1 11/16/2013 02:34:15 ( 10.01, 161.50) 11/16/2013 02:37:51 ( 22.69, 158.47)
2 11/16/2013 15:06:09 ( 22.66, 158.75) 11/16/2013 15:09:44 ( 10.04, 155.74)
3 11/17/2013 02:16:02 ( 12.91, 165.59) 11/17/2013 02:18:48 ( 22.65, 163.24)
4 11/17/2013 03:56:43 ( 10.04, 140.88) 11/17/2013 03:58:23 ( 15.91, 139.51)
5 11/17/2013 14:47:06 ( 22.69, 163.52) 11/17/2013 14:50:42 ( 10.01, 160.49)
6 11/18/2013 03:37:41 ( 10.01, 145.65) 11/18/2013 03:41:17 ( 22.69, 142.62)
7 11/18/2013 14:31:15 ( 11.51, 165.60) 11/18/2013 14:31:40 ( 10.04, 165.26)
8 11/18/2013 16:09:35 ( 22.65, 142.90) 11/18/2013 16:13:10 ( 10.04, 139.89)
9 11/19/2013 03:18:40 ( 10.04, 150.40) 11/19/2013 03:22:15 ( 22.66, 147.39)
10 11/19/2013 15:50:32 ( 22.68, 147.67) 11/19/2013 15:54:08 ( 10.01, 144.64)
11 11/20/2013 02:59:37 ( 10.01, 155.17) 11/20/2013 03:03:13 ( 22.69, 152.14)
12 11/20/2013 15:31:31 ( 22.65, 152.42) 11/20/2013 15:35:06 ( 10.04, 149.41)
13 11/21/2013 02:40:36 ( 10.04, 159.93) 11/21/2013 02:44:11 ( 22.66, 156.91)
14 11/21/2013 15:12:28 ( 22.68, 157.19) 11/21/2013 15:16:04 ( 10.00, 154.17)
15 11/22/2013 02:21:33 ( 10.01, 164.69) 11/22/2013 02:25:09 ( 22.69, 161.67)
16 11/22/2013 14:53:27 ( 22.65, 161.95) 11/22/2013 14:57:02 ( 10.03, 158.93)
17 11/23/2013 03:44:02 ( 10.05, 144.07) 11/23/2013 03:47:37 ( 22.67, 141.06)
18 11/23/2013 14:35:42 ( 18.10, 165.59) 11/23/2013 14:37:59 ( 10.06, 163.70)
19 11/23/2013 16:15:54 ( 22.67, 141.34) 11/23/2013 16:18:02 ( 15.16, 139.51)
20 11/24/2013 03:24:59 ( 10.03, 148.84) 11/24/2013 03:28:34 ( 22.65, 145.83)
21 11/24/2013 15:56:52 ( 22.69, 146.11) 11/24/2013 16:00:28 ( 10.02, 143.08)
22 11/25/2013 03:05:57 ( 10.01, 153.61) 11/25/2013 03:09:33 ( 22.69, 150.58)
23 11/25/2013 15:37:50 ( 22.66, 150.86) 11/25/2013 15:41:25 ( 10.04, 147.85)
24 11/26/2013 02:46:55 ( 10.04, 158.36) 11/26/2013 02:50:30 ( 22.66, 155.35)
25 11/26/2013 15:18:48 ( 22.68, 155.63) 11/26/2013 15:22:24 ( 10.00, 152.60)
26 11/27/2013 02:27:53 ( 10.02, 163.13) 11/27/2013 02:31:28 ( 22.64, 160.12)
27 11/27/2013 14:59:47 ( 22.64, 160.38) 11/27/2013 15:03:22 ( 10.02, 157.37)
28 11/28/2013 02:11:37 ( 19.81, 165.59) 11/28/2013 02:12:26 ( 22.68, 164.87)
29 11/28/2013 03:50:20 ( 10.01, 142.52) 11/28/2013 03:53:55 ( 22.63, 139.51)
30 11/28/2013 14:40:44 ( 22.66, 165.15) 11/28/2013 14:44:19 ( 10.04, 162.14)
31 11/28/2013 16:22:14 ( 22.66, 139.78) 11/28/2013 16:22:32 ( 21.60, 139.51)
32 11/29/2013 03:31:19 ( 10.05, 147.28) 11/29/2013 03:34:54 ( 22.67, 144.27)


NCC Satellite Cal/Val Overpasses Prediction Service
